Raton, NM

11:14 PM MST on November 23, 2017 (GMT -0700)
Raton Municipal-Crews

Weather History for KRTN - February, 2013

Change the Weather History Date:

Tuesday, February 5, 2013

  Actual Average (KTAD) Record (KTAD)
Temperature  
Mean Temperature 39 °F -  
Max Temperature 57 °F 45 °F 74 °F (1963)
Min Temperature 21 °F 16 °F -24 °F (1982)
Degree Days  
Heating Degree Days 26    
Moisture  
Dew Point 11 °F    
Average Humidity 37    
Maximum Humidity 60    
Minimum Humidity 14    
Precipitation  
Precipitation 0.00 in - - ()
Sea Level Pressure  
Sea Level Pressure 29.96 in    
Wind  
Wind Speed 9 mph (East)    
Max Wind Speed 17 mph    
Max Gust Speed 25 mph    
Visibility 10 miles    
Events      
Averages and records for this station are not official NWS values.
T = Trace of Precipitation, MM = Missing Value Source: NWS Daily Summary

Daily Weather History Graph

Daily Weather History Graph

Search for Another Location

Airport or City:

Trip Planner

Search our weather history database for the weather conditions in past years. The results will help you decide how hot, cold, wet, or windy it might be!

Date:

Astronomy

Feb. 05, 2013 Rise Set
Actual Time 6:56 AM MST 5:28 PM MST
Civil Twilight 6:29 AM MST 5:55 PM MST
Nautical Twilight 5:58 AM MST 6:26 PM MST
Astronomical Twilight 5:28 AM MST 6:56 PM MST
Moon 2:37 AM MST (2/5) 12:51 PM MST (2/5)
Length of Visible Light 11h 25m
Length of Day
10h 32m
Waning Crescent, 26% of the Moon is Illuminated
Feb 5
Waning Crescent
Feb 10
New
Feb 17
First Quarter
Feb 25
Full
Mar 4
Last Quarter

Hourly Weather History & Observations

Time (MST) Temp. Windchill Dew Point Humidity Pressure Visibility Wind Dir Wind Speed Gust Speed Precip Events Conditions
12:53 AM 25.0 °F 14.2 °F 10.0 °F 53% 29.89 in 10.0 mi ENE 11.5 mph - N/A   Clear
1:53 AM 23.0 °F 18.4 °F 10.9 °F 60% 29.89 in 10.0 mi NNE 3.5 mph - N/A   Clear
2:53 AM 23.0 °F 13.9 °F 10.0 °F 58% 29.89 in 10.0 mi ENE 8.1 mph - N/A   Clear
3:53 AM 25.0 °F 16.3 °F 10.9 °F 55% 29.88 in 10.0 mi NE 8.1 mph - N/A   Clear
4:53 AM 21.9 °F 10.4 °F 10.0 °F 60% 29.94 in 10.0 mi ENE 11.5 mph - N/A   Clear
5:53 AM 21.9 °F 11.7 °F 8.1 °F 55% 29.98 in 10.0 mi NE 9.2 mph - N/A   Clear
6:53 AM 32.0 °F 26.4 °F 7.0 °F 35% 29.97 in 10.0 mi NNE 5.8 mph - N/A   Clear
7:53 AM 32.0 °F 24.2 °F 10.0 °F 40% 30.04 in 10.0 mi ENE 9.2 mph - N/A   Clear
8:53 AM 39.9 °F - 12.0 °F 32% 30.04 in 10.0 mi Calm Calm - N/A   Clear
9:53 AM 48.9 °F - 10.9 °F 22% 30.00 in 10.0 mi ESE 6.9 mph - N/A   Clear
10:53 AM 53.1 °F - 10.0 °F 18% 29.99 in 10.0 mi East 10.4 mph - N/A   Clear
11:53 AM 55.0 °F - 9.0 °F 16% 29.97 in 10.0 mi Variable 5.8 mph - N/A   Clear
12:53 PM 57.0 °F - 9.0 °F 15% 29.95 in 10.0 mi Variable 4.6 mph - N/A   Clear
1:53 PM 57.0 °F - 9.0 °F 15% 29.93 in 10.0 mi South 12.7 mph - N/A   Clear
2:53 PM 57.9 °F - 9.0 °F 14% 29.91 in 10.0 mi South 13.8 mph 20.7 mph N/A   Clear
3:53 PM 55.9 °F - 9.0 °F 15% 29.91 in 10.0 mi South 16.1 mph 25.3 mph N/A   Clear
4:53 PM 51.1 °F - 10.9 °F 20% 29.95 in 10.0 mi SSE 17.3 mph - N/A   Clear
5:53 PM 43.0 °F 37.7 °F 12.9 °F 30% 30.01 in 10.0 mi SSE 9.2 mph - N/A   Clear
6:53 PM 37.0 °F 31.6 °F 12.0 °F 36% 30.01 in 10.0 mi WSW 6.9 mph - N/A   Clear
7:53 PM 34.0 °F 26.0 °F 12.9 °F 42% 30.04 in 10.0 mi West 10.4 mph - N/A   Clear
8:53 PM 33.1 °F 25.5 °F 12.9 °F 43% 30.00 in 10.0 mi West 9.2 mph - N/A   Clear
9:53 PM 32.0 °F 25.6 °F 14.0 °F 48% 29.97 in 10.0 mi West 6.9 mph - N/A   Clear
10:53 PM 34.0 °F 29.8 °F 14.0 °F 44% 29.93 in 10.0 mi SW 4.6 mph - N/A   Clear
11:53 PM 25.0 °F 18.1 °F 12.0 °F 58% 29.94 in 10.0 mi NE 5.8 mph - N/A   Clear